Weather in Katravozh

Russia / Yamalo-Nenets Autonomous Okrug     66°19′24″N   66°04′46″E
temp.,
°C
wind,
m/s
gust,
m/s
humid.,
%
clouds,
%
prec.,
mm/h
press.,
hPa
HPBL,
m
2 july, sat
sat223:00+13wnw45575 0.0 101066
02:00+11nw456016 0.0 100951
05:00+13nw2563100 0.0 1009152
08:00+17nw675077 0.0 1008902
11:00+16nnw5660100 0.0 1008706
14:00+16ne5558100 0.0 10091009
17:00+16nne3559100 0.0 10091251
20:00+14e336889 0.1 1010281
3 july, sun
sun323:00+11ene5966100 0.2 1011437
02:00+9ene41065100 0.0 1012608
05:00+8ene51071100 0.0 1013658
08:00+9ne4668100 0.1 1014853
11:00+11n4559100 0.2 10151317
14:00+11ne5653100 0.0 10161236
17:00+13ene555178 0.0 10161337
20:00+12ene455223 0.0 10161022
4 july, mon
mon423:00+10ene2258100 0.0 101619
02:00+8nnw116399 0.0 101610
05:00+9wnw226597 0.0 101681
08:00+12wsw335571 0.0 1015741
11:00+15w3345100 0.0 10141129
14:00+18wnw3433100 0.0 10131432
17:00+17nw6643100 0.0 10121072
20:00+14s1162100 0.1 101110
5 july, tue
tue523:00+12s3673100 0.4 1009128
02:00+13sw41083100 0.6 1007224
05:00+14wsw598529 2.3 1005245
08:00+19nw57706 0.9 1005595
11:00+19nw5574100 0.9 1006655
14:00+18nnw4576100 0.0 1006412
17:00+21nnw226660 0.0 1007999
20:00+19nne237492 0.1 1008226
6 july, wed
wed623:00+16e2382100 0.1 100953
02:00+15ese2386100 0.1 100962
05:00+14ese1287100 0.1 101067
08:00+15ese1184100 0.1 1011203
11:00+17sse117989 0.1 1011456
14:00+20sse116790 0.0 10111062
17:00+21se316351 0.0 1011751
20:00+20sse33675 0.0 1011729